Home   Weather   40°46'N, 73°06'W   Past weeks
Flag for USA

Past Weather in 40°46'N, 73°06'W, USA — Yesterday and Last 2 Weeks

Now
69 °F

Fog.


Feels Like: 69 °F
Forecast: 73 / 69 °F
Wind: 12 mph from South

Location: Republic Airport

Current Time: Jun 25, 2019 at 11:57:04 am

Latest Report: Jun 25, 2019 at 11:31 am


Visibility: 2 mi

Pressure: 29.83 "Hg

Humidity: 96%

Dew Point: 68 °F

Location of 40°46'N, 73°06'WLocation

Past Weather in 40°46'N, 73°06'W — Graph

°F

40°46'N, 73°06'W Temperature Yesterday

Maximum temperature yesterday: 81 °F (at 11:53 am)
Minimum temperature yesterday: 65 °F (at 5:53 am)
Average temperature yesterday: 74 °F

High & Low Weather Summary for the Past Weeks

 TemperatureHumidityPressure
High82 °F (Jun 23, 3:53 pm)100% (Jun 10, 9:53 pm)30.19 "Hg (Jun 10, 9:53 pm)
Low55 °F (Jun 12, 5:53 am)31% (Jun 14, 7:53 pm)29.43 "Hg (Jun 21, 3:53 am)
Average68 °F77%29.87 "Hg
* Reported Jun 10 10:21 am — Jun 25 10:53 am, 40°46'N, 73°06'W. Weather by CustomWeather, © 2019

Note: Actual official high and low records may vary slightly from our data, if they occured in-between our weather recording intervals... More about our weather records

Advertising

40°46'N, 73°06'W Weather History for the Previous 24 Hours

Scroll right to see more
 ConditionsComfort  
Time TempWeatherWind HumidityBarometerVisibility
10:53 am
Tue, Jun 25
70 °FLow clouds.10 mph97%29.83 "Hg7 mi
9:53 am70 °FLow clouds.3 mph93%29.83 "Hg10 mi
8:53 am70 °FLight rain. Low clouds.7 mph93%29.85 "Hg10 mi
7:53 am70 °FLow clouds.7 mph93%29.86 "Hg10 mi
6:53 am70 °FLow clouds.7 mph93%29.81 "Hg10 mi
5:53 am70 °FLow clouds.8 mph93%29.84 "Hg10 mi
4:53 am70 °FLow clouds.9 mph90%29.84 "Hg10 mi
3:53 am69 °FLow clouds.8 mph93%29.84 "Hg10 mi
2:53 am70 °FPassing clouds.8 mph90%29.84 "Hg10 mi
2:33 am69 °FPassing clouds.9 mph93%29.85 "Hg10 mi
1:53 am69 °FPassing clouds.7 mph90%29.84 "Hg10 mi
1:01 am69 °FPassing clouds.7 mph93%29.85 "Hg10 mi
11:53 pm
Mon, Jun 24
70 °FClear.6 mph87%29.85 "Hg10 mi
10:53 pm71 °FClear.8 mph84%29.86 "Hg10 mi
9:53 pm72 °FClear.9 mph78%29.85 "Hg10 mi
8:53 pm72 °FClear.3 mph73%29.85 "Hg10 mi
7:53 pm74 °FSunny.12 mph71%29.85 "Hg10 mi
6:53 pm74 °FSunny.12 mph71%29.84 "Hg10 mi
5:53 pm77 °FSunny.12 mph54%29.85 "Hg10 mi
4:53 pm76 °FSunny.12 mph64%29.86 "Hg10 mi
3:53 pm78 °FSunny.10 mph50%29.85 "Hg10 mi
2:53 pm79 °FSunny.10 mph47%29.86 "Hg10 mi
1:53 pm80 °FSunny.12 mph39%29.87 "Hg10 mi
12:53 pm81 °FSunny.12 mph38%29.87 "Hg10 mi
11:53 am81 °FSunny.6 mph33%29.88 "Hg10 mi
Weather by CustomWeather, © 2019

See weather overview